(128953) = 1996 GV10 = 2004 TM133

Discovered at Anderson Mesa on 2004-10-07 by LONEOS.

Orbit

Orbit type: Main Belt

Note: WebGL enabled browser required.

epoch2024-03-31.0
epoch JD2460400.5
perihelion date2021-08-15.54618
perihelion JD2459442.04618
argument of perihelion (°)137.18812
ascending node (°)192.67514
inclination (°)4.36481
eccentricity0.1609980
perihelion distance (AU)1.9235167
Tisserand w.r.t. Jupiter3.6
ΔV w.r.t. Earth (km/sec)8.7
semimajor axis (AU)2.2926247
mean anomaly (°)272.12948
mean daily motion (°/day)0.28392550
aphelion distance (AU)2.662
period (years)3.47
P-vector [x]0.86439717
P-vector [y]-0.47944534
P-vector [z]-0.15149159
Q-vector [x]0.50253225
Q-vector [y]0.81376950
Q-vector [z]0.29195982
absolute magnitude16.93
phase slope0.15
uncertainty0
referenceMPEC 2024-F50
observations used619
oppositions17
arc length (days)10202
first opposition used1996
last opposition used2024
residual rms (arc-secs)0.72
perturbers coarse indicatorM-v
perturbers precise indicator003Ek
first observation date used1996-04-13.0
last observation date used2024-03-19.0
computer nameMPCLINUX
JD of orbit computation2456966.820141
perihelion JD uncertainty (days)3.4819E-05
argument of perihelion uncertainty (°)3.8621E-05
ascending node uncertainty (°)3.6728E-05
inclination uncertainty (°)3.6448E-06
eccentricity uncertainty 2.8830E-08
perihelion distance uncertainty (AU)6.7006E-08
Minimum Orbit Intersection Distances (in AU)
for orbit epoch: 2460400.5, reference: E2024-F50
Mercury1.51934
Venus1.20239
Earth0.91538
Mars0.5576
Jupiter2.67457
Saturn6.51476
Uranus15.7918
Neptune27.5588

Observations

635 total observations over interval: 1996 04 13.33267 – 2024 03 19.635918
These data are available for download (format description).

Date (UT) J2000 RA J2000 Dec Magn Location Ref
1996 04 13.33267 13 39 51.24 -08 41 19.4 20.0 V 691 – Steward Observatory, Kitt Peak-Spacewatch MPC 27222
1996 04 13.35429 13 39 49.97 -08 41 09.7   691 – Steward Observatory, Kitt Peak-Spacewatch MPC 27222
1996 04 13.37667 13 39 48.69 -08 40 59.7   691 – Steward Observatory, Kitt Peak-Spacewatch MPC 27222
1996 04 20.23214 13 33 17.72 -07 49 30.2   691 – Steward Observatory, Kitt Peak-Spacewatch MPC 27222
1996 04 20.25600 13 33 16.34 -07 49 19.0   691 – Steward Observatory, Kitt Peak-Spacewatch MPC 27222
1996 04 20.28224 13 33 14.83 -07 49 07.7 20.8 V 691 – Steward Observatory, Kitt Peak-Spacewatch MPC 27222
2003 04 25.30229 14 03 22.18 -09 45 30.1 20.1 V 691 – Steward Observatory, Kitt Peak-Spacewatch MPS 118572
2003 04 25.33054 14 03 20.47 -09 45 17.9 20.2 V 691 – Steward Observatory, Kitt Peak-Spacewatch MPS 118572
2003 04 25.35909 14 03 18.76 -09 45 05.6 20.1 V 691 – Steward Observatory, Kitt Peak-Spacewatch MPS 118572
2003 05 11.14009 13 48 53.34 -07 58 10.4 21.4 V 691 – Steward Observatory, Kitt Peak-Spacewatch MPS 118572
2003 05 11.16658 13 48 52.01 -07 58 01.1 20.9 V 691 – Steward Observatory, Kitt Peak-Spacewatch MPS 118572
2003 05 11.19273 13 48 50.65 -07 57 51.3 20.6 V 691 – Steward Observatory, Kitt Peak-Spacewatch MPS 118572
2004 09 21.342457 03 39 39.585 +17 14 03.83 20.31 V 645 – Apache Point-Sloan Digital Sky Survey MPS 389943
2004 09 21.345929 03 39 39.635 +17 14 03.35 21.19   645 – Apache Point-Sloan Digital Sky Survey MPS 389943
2004 10 07.42867 03 39 19.88 +16 19 21.2 19.2 R 699 – Lowell Observatory-LONEOS MPS 117846
2004 10 07.44332 03 39 19.62 +16 19 17.0   699 – Lowell Observatory-LONEOS MPS 117846
2004 10 07.45792 03 39 19.35 +16 19 14.4   699 – Lowell Observatory-LONEOS MPS 117846
2004 10 07.47254 03 39 18.90 +16 19 09.9   699 – Lowell Observatory-LONEOS MPS 117846
2004 10 09.30376 03 38 41.24 +16 10 43.5 19.8   704 – Lincoln Laboratory ETS, New Mexico MPS 118572
2004 10 09.32548 03 38 40.67 +16 10 38.7 20.1   704 – Lincoln Laboratory ETS, New Mexico MPS 118572
2004 10 09.33635 03 38 40.38 +16 10 36.5 20.1   704 – Lincoln Laboratory ETS, New Mexico MPS 118572
2004 10 10.45127 03 38 13.29 +16 05 15.8 19.8 V 691 – Steward Observatory, Kitt Peak-Spacewatch MPS 117846
2004 10 10.47904 03 38 12.51 +16 05 07.6 19.7 V 691 – Steward Observatory, Kitt Peak-Spacewatch MPS 117846
2004 10 10.50632 03 38 11.74 +16 04 59.6 19.7 V 691 – Steward Observatory, Kitt Peak-Spacewatch MPS 117846
2004 10 23.29107 03 30 08.91 +14 54 19.5 19.4 V 691 – Steward Observatory, Kitt Peak-Spacewatch MPS 118572
2004 10 23.32904 03 30 06.98 +14 54 05.9 19.5 V 691 – Steward Observatory, Kitt Peak-Spacewatch MPS 118572
2004 10 23.36040 03 30 05.36 +14 53 54.6 19.5 V 691 – Steward Observatory, Kitt Peak-Spacewatch MPS 118572
2004 11 03.31063 03 19 58.44 +13 44 45.5 19.3 V 691 – Steward Observatory, Kitt Peak-Spacewatch MPS 118572
2004 11 03.33776 03 19 56.73 +13 44 35.2 19.2 V 691 – Steward Observatory, Kitt Peak-Spacewatch MPS 118572
2004 11 03.36981 03 19 54.70 +13 44 22.9 19.3 V 691 – Steward Observatory, Kitt Peak-Spacewatch MPS 118572
2004 11 03.42992 03 19 50.98 +13 43 59.9 19.1   644 – Palomar Mountain/NEAT MPS 118572
2004 11 03.45122 03 19 49.62 +13 43 51.4 18.8   644 – Palomar Mountain/NEAT MPS 118572
2004 11 03.47390 03 19 48.21 +13 43 42.6 18.9   644 – Palomar Mountain/NEAT MPS 118572
2004 11 04.34897 03 18 55.42 +13 38 05.9 18.4 R 703 – Catalina Sky Survey MPS 118572
2004 11 04.35944 03 18 54.59 +13 38 01.1 18.3 R 703 – Catalina Sky Survey MPS 118572
2004 11 04.36911 03 18 54.11 +13 37 57.8 18.2 R 703 – Catalina Sky Survey MPS 118572
2004 11 04.37899 03 18 53.48 +13 37 54.3 18.1 R 703 – Catalina Sky Survey MPS 118572
2004 11 12.28698 03 10 45.16 +12 48 21.2 19.0 R 703 – Catalina Sky Survey MPS 119316
2004 11 12.29354 03 10 44.82 +12 48 19.7 19.0 R 703 – Catalina Sky Survey MPS 119316
2004 11 12.30007 03 10 44.37 +12 48 17.9 19.3 R 703 – Catalina Sky Survey MPS 119316
2004 11 12.30659 03 10 43.90 +12 48 15.4 19.1 R 703 – Catalina Sky Survey MPS 119316
2006 02 02.44320 11 13 15.26 +00 51 29.2 21.3 V 691 – Steward Observatory, Kitt Peak-Spacewatch MPS 161809
2006 02 02.46062 11 13 14.68 +00 51 33.1 20.8 V 691 – Steward Observatory, Kitt Peak-Spacewatch MPS 161809
2006 02 02.47796 11 13 14.07 +00 51 36.6 20.9 V 691 – Steward Observatory, Kitt Peak-Spacewatch MPS 161809
2006 02 06.44031 11 10 53.14 +01 07 10.3   691 – Steward Observatory, Kitt Peak-Spacewatch MPS 162799
2006 02 06.45768 11 10 52.42 +01 07 14.6   691 – Steward Observatory, Kitt Peak-Spacewatch MPS 162799
2006 02 06.47498 11 10 51.76 +01 07 18.7   691 – Steward Observatory, Kitt Peak-Spacewatch MPS 162799
2006 03 02.30833 10 50 55.86 +03 30 15.8 20.3 V G96 – Mt. Lemmon Survey MPS 165103
2006 03 02.31341 10 50 55.60 +03 30 17.8 20.2 V G96 – Mt. Lemmon Survey MPS 165103
2006 03 02.31849 10 50 55.32 +03 30 20.2 20.5 V G96 – Mt. Lemmon Survey MPS 165103
2006 03 02.32346 10 50 54.99 +03 30 23.2 20.2 V G96 – Mt. Lemmon Survey MPS 165103
2007 06 18.42708 20 46 51.46 -10 04 10.5 19.5 V 691 – Steward Observatory, Kitt Peak-Spacewatch MPS 211344
2007 06 18.44477 20 46 51.46 -10 04 07.3 19.5 V 691 – Steward Observatory, Kitt Peak-Spacewatch MPS 211344
2007 06 18.46245 20 46 51.47 -10 04 04.2 19.6 V 691 – Steward Observatory, Kitt Peak-Spacewatch MPS 211344
2007 07 15.28476 20 36 59.66 -09 50 55.9 18.1   704 – Lincoln Laboratory ETS, New Mexico MPS 212231
2007 07 15.29495 20 36 59.20 -09 50 56.7 18.8   704 – Lincoln Laboratory ETS, New Mexico MPS 212231
2007 07 15.30522 20 36 58.76 -09 50 58.1 18.3   704 – Lincoln Laboratory ETS, New Mexico MPS 212231
2007 07 15.31547 20 36 58.21 -09 51 00.1 18.4   704 – Lincoln Laboratory ETS, New Mexico MPS 212231
2007 07 15.32569 20 36 57.76 -09 51 01.5 18.3   704 – Lincoln Laboratory ETS, New Mexico MPS 212231
2007 08 13.20707 20 13 02.08 -11 55 56.0 18.7   704 – Lincoln Laboratory ETS, New Mexico MPS 213594
2007 08 13.21918 20 13 01.45 -11 56 00.6 18.9   704 – Lincoln Laboratory ETS, New Mexico MPS 213594
2007 08 13.23129 20 13 01.05 -11 56 04.0 19.2   704 – Lincoln Laboratory ETS, New Mexico MPS 213594
2007 08 13.24343 20 13 00.42 -11 56 07.6 18.6   704 – Lincoln Laboratory ETS, New Mexico MPS 213594
2007 08 13.25552 20 12 59.89 -11 56 12.0 18.8   704 – Lincoln Laboratory ETS, New Mexico MPS 213594
2007 08 16.23995 20 10 59.25 -12 12 57.2 19.3 C 704 – Lincoln Laboratory ETS, New Mexico MPS 291254
2007 08 16.25242 20 10 58.73 -12 13 01.7 18.7 C 704 – Lincoln Laboratory ETS, New Mexico MPS 291254
2007 09 15.14990 20 06 44.17 -14 35 21.9 19.2 V G96 – Mt. Lemmon Survey MPS 217617
2007 09 15.15546 20 06 44.28 -14 35 23.1 19.2 V G96 – Mt. Lemmon Survey MPS 217617
2007 09 15.16094 20 06 44.38 -14 35 24.2 19.2 V G96 – Mt. Lemmon Survey MPS 217617
2007 09 15.16659 20 06 44.60 -14 35 25.3 18.9 V G96 – Mt. Lemmon Survey MPS 217617
2007 10 12.11424 20 28 58.26 -15 13 20.4 19.4 V G96 – Mt. Lemmon Survey MPS 219970
2007 10 12.11983 20 28 58.62 -15 13 19.5 18.7 V G96 – Mt. Lemmon Survey MPS 219970
2007 10 12.12535 20 28 58.98 -15 13 20.2 20.0 V G96 – Mt. Lemmon Survey MPS 219970
2007 10 12.13086 20 28 59.37 -15 13 20.6 20.4 V G96 – Mt. Lemmon Survey MPS 219970
2007 10 14.14559 20 31 27.24 -15 11 52.1   291 – LPL/Spacewatch II MPS 222174
2007 10 14.15278 20 31 27.75 -15 11 51.8   291 – LPL/Spacewatch II MPS 222174
2007 10 14.15999 20 31 28.36 -15 11 54.0   291 – LPL/Spacewatch II MPS 222174
2007 10 15.11520 20 32 40.48 -15 10 56.9   291 – LPL/Spacewatch II MPS 222174
2007 10 15.13125 20 32 41.66 -15 10 55.9   291 – LPL/Spacewatch II MPS 222174
2007 10 15.14740 20 32 42.85 -15 10 55.1   291 – LPL/Spacewatch II MPS 222174
2009 01 01.30304 08 04 59.26 +13 23 39.8 20.1 V 691 – Steward Observatory, Kitt Peak-Spacewatch MPS 271484
2009 01 01.32141 08 04 58.14 +13 23 42.5 20.2 V 691 – Steward Observatory, Kitt Peak-Spacewatch MPS 271484
2009 01 01.33953 08 04 57.07 +13 23 44.7 20.3 V 691 – Steward Observatory, Kitt Peak-Spacewatch MPS 271484
2010 05 04.31295 14 32 21.51 -11 09 36.3 19.6 V 703 – Catalina Sky Survey MPS 326006
2010 05 04.31926 14 32 21.12 -11 09 34.6 19.6 V 703 – Catalina Sky Survey MPS 326006
